Regional Weather Roundup
Issued by NWS

Home | Current Version | Previous Version | Graphics & Text | Print | Product List | Glossary On
Versions: 1 2 3 4 5 6 7 8 9 10 11 12 13 14 15 16 17 18 19 20 21 22 23 24 25 26 27 28 29 30 31 32 33 34 35 36 37 38 39 40 41 42 43 44 45 46 47 48 49 50
000
ASUS45 KTFX 260510
RWRMT
MONTANA REGIONAL WEATHER ROUNDUP
NATIONAL WEATHER SERVICE GREAT FALLS MT
1100 PM MDT MON MAY 25 2015

NOTE: "FAIR" INDICATES FEW OR NO CLOUDS BELOW 12000 FEET WITH NO
SIGNIFICANT WEATHER AND/OR OBSTRUCTIONS TO VISIBILITY.

MTZ001>007-043-260600-
WEST OF THE DIVIDE

CITY           SKY/WX    TMP DP  RH WIND       PRES   REMARKS
KALISPELL      CLOUDY    54  48  80 S6        29.92R
MISSOULA       CLOUDY    52  47  83 NW3       29.95S
BUTTE          CLOUDY    49  42  77 W16       29.99R
MULLAN PASS    MOCLDY    43  41  93 S5        29.99R
DEER LODGE       N/A     50  46  87 CALM      30.01R
EUREKA           N/A     54  50  87 N9        29.94R
HAMILTON         N/A     55  46  71 E1        29.95R
LIBBY            N/A     52  48  87 S3        29.92R
RONAN            N/A     52  50  93 CALM      29.99R
$$

MTZ008-052>055-260600-
SOUTHWEST MONTANA

CITY           SKY/WX    TMP DP  RH WIND       PRES   REMARKS
BOZEMAN        CLOUDY    56  44  64 SW12      29.93R
DILLON         LGT RAIN  50  45  83 W6        29.97R
W YELLOWSTONE  MOCLDY    41  41 100 W3        30.02S
THREE FORKS      N/A     57 -11   6 SW12      29.94R
TWIN BRIDGES     N/A     52  45  77 NW5       29.97R
$$

MTZ009-010-012-014-046-048-049-054-260600-
EAST SLOPES AND CENTRAL MONTANA

CITY           SKY/WX    TMP DP  RH WIND       PRES   REMARKS
CUT BANK       CLOUDY    51  48  89 SW8       29.90R
GREAT FALLS    RAIN      52  49  89 W9        29.92R FOG
HELENA         CLOUDY    58  46  64 W7        29.92R
CONRAD           N/A     56  50  80 CALM      29.92S
$$

MTZ011-013-016-021-045-047-050-051-260600-
NORTH CENTRAL MONTANA

CITY           SKY/WX    TMP DP  RH WIND       PRES   REMARKS
HAVRE          CLEAR     56  42  59 CALM      29.84R
LEWISTOWN      PTCLDY    55  45  68 SE6       29.90R
N BAR RANCH    FAIR      54  46  76 W6G12     29.95S
CHINOOK          N/A     55  46  71 CALM      29.85R
FORT BENTON      N/A     61  46  59 S12       29.87R
$$

MTZ017>020-022>027-061-062-260600-
NORTHEAST MONTANA

CITY           SKY/WX    TMP DP  RH WIND       PRES   REMARKS
GLASGOW        CLEAR     56  45  66 E9        29.88R
JORDAN           N/A     54  49  83 E6        29.89S
SIDNEY         PTCLDY    54  46  76 CALM      29.90S
WOLF POINT     CLEAR     54  46  74 NE3       29.90R
MALTA            N/A     61  47  59 CALM      29.84R
POPLAR           N/A     61  48  63 SE5       29.90S
$$

MTZ028>42-056>058-260600-
SOUTHCENTRAL AND SOUTHEAST MONTANA

CITY           SKY/WX    TMP DP  RH WIND       PRES   REMARKS
BAKER          CLEAR     48  46  93 SE6       29.94S
BILLINGS       PTCLDY    60  45  57 SE10      29.90S
LIVINGSTON     PTCLDY    54  44  69 CALM      29.90R
MILES CITY     PTCLDY    55  49  80 W5        29.90R
BIG TIMBER       N/A     55  45  67 E6        29.92S
FORSYTH          N/A     54  54 100 E3        29.89S
LAUREL           N/A     56  41  57 NE2       29.90S
ROUNDUP          N/A     55  44  66 CALM      29.84R
$$

REGIONAL REPORTS...DAKOTAS

CITY           SKY/WX    TMP DP  RH WIND       PRES   REMARKS
WILLISTON      CLEAR     55  48  77 SW6       29.89R
MINOT          CLEAR     64  45  49 W17       29.83R
DICKINSON      CLEAR     49  46  90 W7        29.91R
BEACH          CLOUDY    45  45 100 SE3       29.94S
CROSBY         FAIR      59  50  72 W15       29.87F
WATFORD CITY   FAIR      50  46  87 W3        29.88S
BISMARCK       CLEAR     58  53  84 W8        29.88R
GRAND FORKS    CLEAR     57  50  77 S12       29.82R
FARGO          CLEAR     52  50  93 SW3       29.86R
BUFFALO SD       N/A     52  50  93 SW5       29.88S
RAPID CITY     CLOUDY    53  51  93 N5        29.96R
$$

REGIONAL REPORTS...WYOMING/IDAHO/WASHINGTON

CITY           SKY/WX    TMP DP  RH WIND       PRES   REMARKS
GILLETTE       CLEAR     42  41  96 S5        29.95F
SHERIDAN       CLEAR     50  46  86 SE7       29.94S
BUFFALO WY     CLEAR     49  46  90 S9        29.97F
CODY           CLOUDY    52  45  76 S5        29.95S
YELLOWSTONE LA   N/A     37  35  92 CALM      30.09R
IDAHO FALLS    MOCLDY    53  47  79 S15       29.97S
SALMON         CLOUDY    52  48  87 CALM      29.97R
BOISE          MOCLDY    61  49  64 S7        29.89R
SPOKANE        MOCLDY    56  48  74 SW3       29.91R
$$

REGIONAL REPORTS...ALBERTA

CITY           SKY/WX    TMP DP  RH WIND       PRES   REMARKS
EDMONTON       MOCLDY    63  37  39 N5        29.85S
CALGARY        MOCLDY    57  41  54 N7        29.91R
LETHBRIDGE     PTCLDY    52  45  76 S10       29.87R
MEDICINE HAT   MOCLDY    66  39  37 CALM      29.84R
$$

REGIONAL REPORTS...SASKATCHEWAN

CITY           SKY/WX    TMP DP  RH WIND       PRES   REMARKS
SWIFT CURRENT  CLEAR     57  34  41 S7        29.86S
SASKATOON        N/A     63  43  48 S5        29.83R
$$


USA.gov is the U.S. government's official web portal to all federal, state and local government web resources and services.